Terminal Aerodrome Forecast
Issued by NWS Green Bay, WI

Home | Current Version | Previous Version | Graphics & Text | Print | Product List | Glossary On
Versions: 1 2 3 4 5 6 7 8 9 10 11 12 13 14 15 16 17 18 19 20 21 22
000
FTUS43 KGRB 212339
TAFGRB
TAF
KGRB 212339Z 2200/2224 24010G20KT P6SM SCT024 OVC035
     FM220400 25009KT P6SM OVC024
     FM221300 25011G20KT P6SM FEW025 BKN040
     FM222300 26009KT P6SM SCT040 BKN070=

USA.gov is the U.S. government's official web portal to all federal, state and local government web resources and services.